Ironwood, MI

8:43 PM CDT on July 27, 2017 (GMT -0500)
Gogebic-Iron County

Weather History for KIWD - July, 2012

Change the Weather History Date:

Saturday, July 7, 2012

  Actual Average Record
Temperature  
Mean Temperature 66 °F -  
Max Temperature 78 °F 73 °F 89 °F (2007)
Min Temperature 55 °F 52 °F 37 °F (1997)
Cooling Degree Days 2    
Growing Degree Days 16 (Base 50)    
Moisture  
Dew Point 55 °F    
Average Humidity 67    
Maximum Humidity 88    
Minimum Humidity 34    
Precipitation  
Precipitation 0.08 in - - ()
Sea Level Pressure  
Sea Level Pressure 30.08 in    
Wind  
Wind Speed 2 mph (NW)    
Max Wind Speed 12 mph    
Max Gust Speed 16 mph    
Visibility 9 miles    
Events      
Averages and records for this station are not official NWS values.
T = Trace of Precipitation, MM = Missing Value Source: NWS Daily Summary

Daily Weather History Graph

Daily Weather History Graph

Search for Another Location

Airport or City:

Trip Planner

Search our weather history database for the weather conditions in past years. The results will help you decide how hot, cold, wet, or windy it might be!

Date:

Astronomy

Jul. 07, 2012 Rise Set
Actual Time 5:15 AM CDT 8:54 PM CDT
Civil Twilight 4:37 AM CDT 9:33 PM CDT
Nautical Twilight 3:46 AM CDT 10:24 PM CDT
Astronomical Twilight 2:35 AM CDT 11:34 PM CDT
Moon 10:53 PM CDT (7/7) 9:59 AM CDT (7/7)
Length of Visible Light 16h 55m
Length of Day
15h 38m
Waning Gibbous, 81% of the Moon is Illuminated
Jul 7
Waning Gibbous
Jul 10
Last Quarter
Jul 18
New
Jul 26
First Quarter
Aug 1
Full

Hourly Weather History & Observations

Time (CDT) Temp. Dew Point Humidity Pressure Visibility Wind Dir Wind Speed Gust Speed Precip Events Conditions
12:15 AM 59.0 °F 55.4 °F 88% 30.03 in 10.0 mi Calm Calm - N/A   Clear
12:35 AM 59.0 °F 53.6 °F 82% 30.04 in 8.0 mi Calm Calm - N/A   Clear
12:55 AM 57.2 °F 53.6 °F 88% 30.04 in 1.5 mi Calm Calm - N/A   Clear
1:15 AM 59.0 °F 53.6 °F 82% 30.04 in 10.0 mi Calm Calm - N/A   Partly Cloudy
1:35 AM 59.0 °F 55.4 °F 88% 30.04 in 5.0 mi Calm Calm - N/A   Clear
1:55 AM 57.2 °F 53.6 °F 88% 30.03 in 0.8 mi Calm Calm - N/A   Unknown
2:15 AM 57.2 °F 53.6 °F 88% 30.04 in 8.0 mi Calm Calm - N/A   Clear
2:35 AM 57.2 °F 53.6 °F 88% 30.04 in 10.0 mi Calm Calm - N/A   Clear
2:55 AM 57.2 °F 51.8 °F 82% 30.04 in 0.5 mi Calm Calm - N/A   Unknown
3:15 AM 57.2 °F 53.6 °F 88% 30.04 in 5.0 mi West 3.5 mph - N/A   Clear
3:55 AM 55.4 °F 51.8 °F 88% 30.05 in 9.0 mi Calm Calm - N/A   Clear
4:15 AM 57.2 °F 53.6 °F 88% 30.06 in 2.0 mi Calm Calm - N/A   Overcast
4:35 AM 57.2 °F 53.6 °F 88% 30.06 in 1.0 mi Calm Calm - N/A   Overcast
4:55 AM 57.2 °F 53.6 °F 88% 30.06 in 10.0 mi Calm Calm - N/A   Overcast
5:15 AM 59.0 °F 53.6 °F 82% 30.06 in 10.0 mi Calm Calm - N/A   Overcast
5:35 AM 59.0 °F 53.6 °F 82% 30.07 in 10.0 mi Calm Calm - N/A   Overcast
5:55 AM 59.0 °F 53.6 °F 82% 30.08 in 10.0 mi Calm Calm - N/A   Overcast
6:15 AM 59.0 °F 53.6 °F 82% 30.08 in 7.0 mi Calm Calm - N/A   Overcast
6:35 AM 59.0 °F 53.6 °F 82% 30.08 in 10.0 mi Calm Calm - N/A   Overcast
6:55 AM 59.0 °F 53.6 °F 82% 30.08 in 10.0 mi WSW 3.5 mph - N/A   Overcast
7:15 AM 59.0 °F 55.4 °F 88% 30.08 in 10.0 mi WNW 3.5 mph - N/A   Overcast
7:35 AM 60.8 °F 55.4 °F 82% 30.08 in 6.0 mi Calm Calm - N/A   Overcast
7:55 AM 60.8 °F 55.4 °F 82% 30.09 in 10.0 mi Calm Calm - N/A   Overcast
8:15 AM 62.6 °F 55.4 °F 77% 30.10 in 10.0 mi Calm Calm - N/A   Mostly Cloudy
8:35 AM 62.6 °F 57.2 °F 82% 30.10 in 10.0 mi Calm Calm - N/A   Mostly Cloudy
8:55 AM 64.4 °F 57.2 °F 77% 30.10 in 10.0 mi WNW 3.5 mph - N/A   Scattered Clouds
9:15 AM 66.2 °F 59.0 °F 78% 30.10 in 10.0 mi Calm Calm - N/A   Partly Cloudy
9:35 AM 66.2 °F 59.0 °F 78% 30.10 in 10.0 mi Calm Calm - N/A   Scattered Clouds
9:55 AM 68.0 °F 59.0 °F 73% 30.10 in 10.0 mi WSW 4.6 mph - N/A   Scattered Clouds
10:15 AM 69.8 °F 59.0 °F 68% 30.10 in 10.0 mi Calm Calm - N/A   Partly Cloudy
10:35 AM 71.6 °F 60.8 °F 69% 30.10 in 10.0 mi Calm Calm - N/A   Mostly Cloudy
10:55 AM 71.6 °F 60.8 °F 69% 30.11 in 10.0 mi Calm Calm - N/A   Scattered Clouds
11:15 AM 71.6 °F 60.8 °F 69% 30.11 in 10.0 mi WSW 4.6 mph - N/A   Scattered Clouds
11:35 AM 73.4 °F 60.8 °F 65% 30.11 in 10.0 mi Calm Calm - N/A   Scattered Clouds
11:55 AM 73.4 °F 59.0 °F 61% 30.11 in 10.0 mi West 5.8 mph - N/A   Scattered Clouds
12:15 PM 75.2 °F 59.0 °F 57% 30.11 in 10.0 mi NW 6.9 mph - N/A   Partly Cloudy
12:35 PM 75.2 °F 59.0 °F 57% 30.10 in 10.0 mi North 4.6 mph - N/A   Partly Cloudy
12:55 PM 77.0 °F 57.2 °F 50% 30.10 in 10.0 mi NW 8.1 mph - N/A   Partly Cloudy
1:15 PM 75.2 °F 57.2 °F 53% 30.10 in 10.0 mi WNW 8.1 mph - N/A   Scattered Clouds
1:35 PM 78.8 °F 57.2 °F 47% 30.10 in 10.0 mi NNW 8.1 mph 16.1 mph N/A   Partly Cloudy
1:55 PM 78.8 °F 57.2 °F 47% 30.10 in 10.0 mi NNW 11.5 mph - N/A   Clear
2:15 PM 78.8 °F 55.4 °F 44% 30.10 in 10.0 mi NNW 9.2 mph - N/A   Clear
2:55 PM 78.8 °F 51.8 °F 39% 30.10 in 10.0 mi NNW 6.9 mph - N/A   Clear
3:15 PM 78.8 °F 53.6 °F 42% 30.10 in 10.0 mi NW 8.1 mph - N/A   Clear
3:35 PM 78.8 °F 51.8 °F 39% 30.10 in 10.0 mi NNW 5.8 mph - N/A   Clear
3:55 PM 78.8 °F 50.0 °F 36% 30.10 in 10.0 mi NNE 8.1 mph - N/A   Clear
4:15 PM 78.8 °F 48.2 °F 34% 30.10 in 10.0 mi NNW 3.5 mph - N/A   Clear
4:55 PM 78.8 °F 51.8 °F 39% 30.09 in 10.0 mi NW 5.8 mph - N/A   Clear
5:15 PM 78.8 °F 51.8 °F 39% 30.09 in 10.0 mi WNW 6.9 mph - N/A   Clear
5:35 PM 78.8 °F 51.8 °F 39% 30.09 in 10.0 mi NW 4.6 mph - N/A   Clear
5:55 PM 78.8 °F 51.8 °F 39% 30.09 in 10.0 mi WNW 5.8 mph - N/A   Clear
6:15 PM 78.8 °F 51.8 °F 39% 30.09 in 10.0 mi WNW 5.8 mph - N/A   Clear
6:35 PM 78.8 °F 51.8 °F 39% 30.09 in 10.0 mi Calm Calm - N/A   Clear
6:55 PM 77.0 °F 53.6 °F 44% 30.08 in 10.0 mi West 4.6 mph - N/A   Clear
7:15 PM 77.0 °F 53.6 °F 44% 30.08 in 10.0 mi Calm Calm - N/A   Clear
7:35 PM 75.2 °F 53.6 °F 47% 30.08 in 10.0 mi Calm Calm - N/A   Clear
7:55 PM 75.2 °F 53.6 °F 47% 30.08 in 10.0 mi Calm Calm - N/A   Clear
8:15 PM 71.6 °F 60.8 °F 69% 30.09 in 10.0 mi Calm Calm - N/A   Clear
8:35 PM 69.8 °F 57.2 °F 64% 30.09 in 10.0 mi Calm Calm - N/A   Clear
8:55 PM 66.2 °F 57.2 °F 73% 30.09 in 10.0 mi Calm Calm - N/A   Clear
9:15 PM 64.4 °F 57.2 °F 77% 30.10 in 10.0 mi Calm Calm - N/A   Clear
9:35 PM 64.4 °F 57.2 °F 77% 30.10 in 10.0 mi Calm Calm - N/A   Clear